NOAA 16 DEB, 41357

Orbit data source: Space-Track

NOAA 16 DEB, 41357 is space debris in SSO originally from a launch on Thu, 21 Sep 2000 UTC launched from the Air Force Western Test Range (AFWTR). Debris objects in space refer to the collection of defunct objects orbiting the Earth. Examples of debris include non-operational satellites, rocket bodies, and fragments generated from explosions, collisions, or faulty payload assembly.

Loading next visibility...
Identifier
41357, 2000-055JA
Orbit
SSO
Country
Flag of USUS
Related business
Manufacturer
Unknown
Mission
Spacecraft
Bus & Motor
Unknown
Mass
Unknown
Launch date (UTC)
2000-09-21 (26 years ago)
Launch vehicle
Unknown
Launch site
Air Force Western Test Range (AFWTR)
Object type
Payload
Rocket body
Debris
Shape & HBR
Unknown shape, 0.1 m
Radar Cross Section
Small (<0.1 m²)

Expand to show TLE details & history
Last TLE update: 7 hours ago

TLE from 7 hours ago
0 NOAA 16 DEB
1 41357U 00055JA  26130.68891378  .00001952  00000-0  11728-2 0  9990
2 41357  98.8524 120.1079 0071004 171.3766 188.8640 14.06773433524678
Epoch: 2026-05-10T16:32Z
TLE epoch observation values (Epoch: 2026-05-10T16:32:02.150Z)
Latitude
-0.0001°
Longitude
3.61056°
Altitude
924.198 km
Speed
7.364 km/s
True Right ascension
08h 00m 25s
True Declination
0° 00' 00"
Sunlit
Object was in daylight at epoch
Visualization orbit readout
Latitude
Unknown
Longitude
Unknown
Altitude
Unknown
Speed
Unknown
Apparent Right ascension
Unknown
Apparent Declination
Unknown
Sunlit
N/A
Visualization observer readout
Local Sidereal Time
08:06:50
Azimuth
Unknown
Elevation
Unknown
Doppler factor
Unknown
Orbital elements
Apogee altitude
919.065 km
Perigee altitude
816.169 km
Semi-major axis
7,245.754 km
Eccentricity
0.0071
Inclination
98.8524°
RAAN
120.1079°
Arg. of periapsis
171.3766°
True anomaly
188.73972°
Mean anomaly
188.864°
Eccentric anomaly
188.80175°
Mean motion
3.51899 °/min
Orbital period
102.3 mins
BSTAR
0.0011728
Loading maneuver chart data...
Computing Atmospheric mass density...
Loading historical data...
Loading historical data...
Loading historical data...
Loading historical data...
Loading historical data...
Loading historical data...
Loading historical data...

Documentation

Showing up to 5 results
|